Overview Statistics Trail Chart Weather Telemetry Raw packets
 

This is the latest recevied weather packets stored in our database for station/object KL7AF. If no packets are shown the sender has not sent any weather packets the latest 10 day(s).

<< 23 24 25 26 27 28 29 >>
Time Temp. Humidity Pressure Rain* Wind** Luminosity Snow
1788455644 35° C 59% 1077.5 hPa 0 mm - 94 W/m² -
1788455344 35° C 61% 1077.6 hPa 0 mm - 150 W/m² -
1788455044 34.44° C 60% 1077.7 hPa 0 mm - 235 W/m² -
1788454743 34.44° C 58% 1077.8 hPa 0 mm - 574 W/m² -
1788454443 34.44° C 61% 1078 hPa 0 mm - 103 W/m² -
1788454143 33.89° C 62% 1078.1 hPa 0 mm - 410 W/m² -
1788453843 33.89° C 61% 1078.1 hPa 0 mm - 175 W/m² -
1788453542 33.89° C 64% 1078.2 hPa 0 mm - 603 W/m² -
1788453242 33.89° C 64% 1078.1 hPa 0 mm - 511 W/m² -
1788452941 33.89° C 66% 1078.2 hPa 0 mm - 464 W/m² -
1788452640 33.89° C 65% 1078.3 hPa 0 mm - 545 W/m² -
1788452340 33.89° C 64% 1078.3 hPa 0 mm - 83 W/m² -
1788452039 33.89° C 65% 1078.4 hPa 0 mm - 83 W/m² -
1788451739 33.33° C 65% 1078.4 hPa 0 mm - 144 W/m² -
1788451438 33.89° C 65% 1078.4 hPa 0 mm - 74 W/m² -
1788451137 33.89° C 62% 1078.3 hPa 0 mm - 74 W/m² -
1788450836 33.89° C 63% 1078.3 hPa 0 mm - 159 W/m² -
1788450535 33.89° C 62% 1078.3 hPa 0 mm - 365 W/m² -
1788450234 34.44° C 63% 1078.3 hPa 0 mm - 537 W/m² -
1788449933 33.89° C 64% 1078.3 hPa 0 mm - 719 W/m² -
1788449632 33.89° C 62% 1078.3 hPa 0 mm - 711 W/m² -
1788449332 33.89° C 63% 1078.3 hPa 0 mm - 699 W/m² -
1788449032 33.33° C 65% 1078.4 hPa 0 mm - 686 W/m² -
1788448731 32.78° C 66% 1078.5 hPa 0 mm - 670 W/m² -
1788448431 32.22° C 68% 1078.6 hPa 0 mm - 657 W/m² -

* Rain latest hour (hover to see other rain measurements)
** Current wind speed in m/s (hover to see current wind gust speed)